Wind_Speed
10 9 9 10 11 11 10 9 7 6 5 3 2 3 5 5 5 6 7 9 10 10 9 8 7 8 8 8 9 10 11 13 14 15 15 16 17 19 20 21 23 25 27 29 32
10 10 11 11 12 13 12 11 7 6 5 5 4 3 1 1 2 3 3 4 4 5 5 5 6 7 9 11 11 12 14 14 15 15 16 18 20 22 23 25 26 28 30 32 35
10 13 11 13 14 14 14 13 11 7 5 4 3 3 5 6 6 6 5 4 4 4 4 7 10 12 12 13 14 16 15 15 17 18 20 21 19 21 24 27 29 33 35 38 40
13 12 12 14 16 16 17 14 11 8 5 4 4 5 7 7 8 7 7 6 7 8 11 12 11 11 12 15 15 15 17 19 21 20 20 22 24 25 28 31 34 37 40 43 46
13 12 13 15 17 18 18 15 12 11 9 7 5 6 7 6 5 7 7 9 10 10 9 10 10 12 13 15 15 13 15 16 19 20 23 26 32 34 38 41 45 48 51 54 57
14 12 14 17 21 22 17 14 13 13 10 9 8 8 5 5 6 6 9 9 8 9 11 11 11 10 11 11 13 15 17 20 23 29 35 38 40 40 42 46 49 53 57 60 62
14 13 14 17 22 23 18 15 13 11 9 8 7 6 7 7 6 7 8 7 7 9 9 9 11 12 14 15 18 19 21 25 29 33 35 41 42 46 49 52 55 60 64 65 66
13 11 13 17 22 22 19 15 12 11 8 7 6 6 7 5 6 6 7 7 7 8 9 12 14 16 17 19 20 24 28 35 35 37 41 47 48 49 53 58 61 65 66 70 72
13 11 12 15 18 23 23 16 13 11 11 9 8 8 6 5 5 7 6 6 8 10 13 15 18 17 17 20 26 31 35 39 42 43 45 48 54 56 59 63 66 69 73 74 76
12 10 11 13 16 22 25 19 14 11 11 10 9 6 6 4 5 6 4 7 8 9 10 13 17 22 25 29 31 33 37 39 42 42 46 52 56 59 65 70 74 76 78 80 81
11 8 9 11 14 19 25 26 18 11 10 10 10 5 4 4 4 4 5 6 7 8 12 18 20 24 26 28 30 34 37 38 41 43 44 43 48 56 64 68 73 76 79 82 82
10 7 6 9 11 16 21 26 26 18 10 12 14 13 12 11 9 9 8 8 8 10 13 16 21 21 24 29 32 34 37 40 43 47 52 52 51 57 63 69 73 79 82 82 86
10 7 3 5 8 13 18 21 24 25 19 12 12 16 15 15 15 15 14 13 12 12 14 16 18 23 27 29 29 33 37 40 44 48 52 55 60 63 69 76 79 81 84 86 88
12 8 4 1 5 10 14 18 21 23 22 22 14 12 13 14 14 14 15 13 12 14 15 16 20 24 28 28 31 35 39 47 50 56 59 64 70 73 76 79 82 84 85 82 83
19 15 12 6 3 7 11 15 18 21 23 24 22 22 17 15 16 14 15 16 15 15 17 20 23 27 28 30 34 39 49 54 56 62 69 71 75 79 80 82 86 85 87 85 76
14 14 12 9 3 5 8 13 17 19 21 24 26 24 21 18 15 16 18 18 18 17 20 23 26 28 31 34 39 47 54 58 65 69 72 74 77 80 83 90 88 88 84 69 51
12 12 11 10 7 5 8 12 15 18 20 23 25 27 24 19 18 18 19 20 21 22 23 24 27 30 34 37 45 54 59 64 67 69 72 78 77 80 86 87 88 86 63 46 48
14 13 15 13 11 9 8 12 13 16 18 22 25 27 25 21 19 20 21 22 24 25 25 28 31 35 38 43 51 57 61 62 66 71 75 80 78 81 88 89 81 64 46 43 48
14 13 14 16 16 14 13 13 12 14 16 20 24 26 25 24 22 23 24 25 27 29 32 36 34 36 41 47 51 56 59 63 67 72 78 81 79 84 88 89 76 51 43 47 51
16 14 13 15 17 16 15 14 11 12 14 19 23 24 26 25 23 22 25 28 29 33 35 36 36 38 43 47 51 56 59 63 68 73 75 81 81 84 93 89 61 47 51 55 58
19 16 14 13 15 16 15 11 11 12 14 18 21 24 26 27 27 25 27 30 33 36 36 36 37 40 43 47 51 56 59 65 70 72 74 83 80 87 87 64 55 52 55 59 60
21 18 16 14 15 16 14 12 12 13 15 17 20 22 26 30 31 29 32 35 36 37 37 38 40 41 43 48 53 55 61 65 69 72 73 80 82 87 70 54 52 53 56 58 58
24 21 18 15 16 17 16 14 14 14 16 17 19 21 25 30 34 37 38 40 41 39 40 40 40 41 45 50 53 56 59 64 69 70 74 82 82 85 67 48 48 53 57 58 53
25 23 20 18 17 18 18 17 17 16 17 18 19 21 24 28 34 39 40 41 43 41 39 38 39 40 45 49 52 55 58 64 68 71 76 81 85 80 57 50 50 55 57 52 43
26 24 22 21 19 19 20 20 21 19 19 20 19 24 25 28 32 37 41 44 47 47 41 38 39 41 45 48 51 55 59 63 67 72 75 81 85 68 46 52 54 57 53 41 37
29 26 24 23 21 21 20 22 23 22 21 20 20 24 28 29 31 36 42 48 52 51 44 40 40 41 44 46 50 54 59 62 67 70 75 81 84 58 42 47 50 50 43 39 38
30 29 27 24 23 22 22 23 24 23 22 22 22 25 29 30 31 37 44 51 54 52 45 39 39 41 43 46 50 56 61 60 65 71 77 81 85 69 38 44 49 47 42 39 38
Wind_Direction
95 87 76 68 63 53 46 40 33 35 32 17 341 293 271 266 271 281 287 292 294 297 301 301 307 308 311 321 332 336 342 349 355 354 348 343 338 332 327 323 318 314 312 308 306
97 87 80 70 56 43 35 30 29 38 44 46 49 47 56 195 240 272 296 318 329 327 329 343 358 357 4 5 8 11 11 11 9 1 353 349 346 340 331 327 321 315 310 307 305
98 92 75 63 50 36 27 22 25 32 50 54 71 89 89 104 98 99 89 64 40 35 41 35 31 27 25 24 25 27 24 17 8 1 355 347 340 333 326 320 316 312 308 304 300
110 91 75 53 40 28 26 23 27 35 43 58 86 94 93 96 91 84 71 60 58 53 44 40 38 34 32 35 33 26 17 7 2 351 343 335 330 323 322 317 311 308 305 302 299
110 97 68 51 34 26 25 29 34 45 48 58 76 89 88 84 83 73 68 67 64 60 56 45 40 39 37 32 24 9 6 357 349 343 338 329 330 326 325 319 317 315 313 311 309
117 91 68 51 39 32 32 35 45 48 54 59 69 78 71 63 55 68 76 75 71 55 43 38 32 34 31 17 6 2 354 348 342 341 339 335 331 324 319 319 317 316 313 310 308
116 90 67 51 43 37 36 38 44 48 57 64 62 48 62 61 68 73 68 67 58 54 47 37 28 18 7 3 354 355 350 341 341 335 329 329 325 324 325 323 321 317 313 310 305
115 92 71 55 43 43 42 44 45 41 42 47 53 43 53 57 70 65 69 56 47 42 41 29 17 9 1 355 353 350 343 339 339 336 333 331 329 326 324 322 317 314 312 308 304
119 98 75 58 47 45 45 44 42 34 35 37 42 55 61 76 82 72 63 70 51 32 19 12 9 1 353 353 347 346 344 341 337 335 334 331 328 324 322 321 317 311 308 307 305
126 107 82 61 48 47 48 42 37 29 36 37 31 53 68 94 81 69 73 58 46 23 10 6 -0 354 353 349 348 343 339 335 333 334 332 328 322 320 318 316 312 309 308 305 304
141 115 90 64 48 46 48 44 40 25 14 25 21 12 36 36 50 26 12 6 8 356 359 357 350 347 342 342 340 339 338 336 332 331 329 327 320 317 316 315 311 310 309 307 305
158 137 95 66 45 43 44 43 44 37 14 7 3 357 353 350 341 329 325 330 328 338 334 338 339 341 343 344 342 342 341 338 331 325 326 326 326 323 322 318 316 314 312 309 309
173 162 129 63 42 39 36 40 41 39 36 19 356 351 345 326 318 316 317 313 318 336 343 342 344 345 346 342 343 340 339 332 330 334 333 329 330 331 329 323 319 315 313 315 312
200 191 190 50 30 29 30 28 31 31 31 25 13 354 331 316 311 314 316 315 324 332 334 339 344 345 337 338 342 338 335 337 336 338 337 338 335 336 330 325 321 319 320 317 310
219 231 240 234 346 10 20 19 19 21 24 19 13 4 346 330 319 321 320 317 322 325 335 339 343 339 337 336 338 339 340 339 340 340 343 341 334 335 330 327 323 323 321 317 319
211 216 217 221 254 348 356 12 10 11 13 12 12 6 352 337 326 318 320 318 322 332 333 339 343 340 338 340 340 340 338 340 340 342 342 338 335 335 331 326 326 327 323 325 327
215 215 217 225 246 297 340 358 -0 2 4 9 9 4 357 344 331 324 321 325 328 331 334 341 340 338 339 341 338 339 338 340 341 342 342 337 336 334 331 331 332 330 332 333 331
223 225 231 235 250 271 313 337 343 350 358 3 8 6 0 352 343 335 330 329 326 327 331 334 337 337 337 338 339 339 341 342 341 343 342 336 337 334 333 335 333 334 338 337 335
224 232 232 241 251 268 289 313 326 338 350 3 6 7 6 359 347 340 338 330 327 327 329 330 335 335 337 340 341 341 343 341 342 341 341 338 338 336 336 337 336 343 343 341 341
225 234 242 249 258 268 280 292 302 329 348 357 3 7 7 3 351 343 337 333 329 326 327 329 332 335 337 338 342 342 343 342 343 342 340 337 339 339 339 339 345 348 350 347 343
228 233 244 256 262 265 268 269 291 320 344 354 358 5 6 5 358 347 348 341 331 328 328 327 331 334 335 339 343 343 343 344 343 342 340 337 343 343 343 340 350 353 350 345 347
232 235 244 255 262 258 255 262 280 309 333 349 356 4 7 7 3 -0 356 353 345 334 329 327 328 331 336 339 343 342 344 344 342 343 341 339 347 347 343 345 351 352 347 349 349
234 237 244 254 261 256 251 257 275 301 322 329 345 355 -0 6 5 4 1 360 352 342 333 331 330 332 337 341 342 343 344 343 343 343 342 341 347 349 345 348 353 348 352 353 355
235 240 245 253 259 255 252 256 272 291 313 320 332 343 349 357 2 -0 3 2 356 348 340 334 332 335 338 342 341 342 343 344 344 344 344 344 347 351 347 351 353 354 357 2 6
235 241 245 251 255 253 253 256 269 287 301 309 320 332 339 348 356 357 -0 3 358 352 344 336 334 337 339 342 341 341 343 345 344 346 345 347 351 353 350 352 354 357 3 10 18
238 243 247 248 254 254 257 257 267 281 293 300 314 325 335 341 345 349 354 359 356 352 345 339 336 340 340 342 344 343 344 346 345 347 347 349 351 355 353 351 351 3 7 15 19
239 241 245 248 254 257 259 259 267 276 287 296 305 318 330 340 339 341 349 356 355 351 345 340 339 341 343 345 346 343 346 346 347 348 348 349 351 356 359 352 354 4 12 16 14
Height
5902 5902 5902 5901 5901 5900 5899 5899 5898 5897 5897 5896 5896 5896 5896 5896 5897 5897 5897 5897 5896 5895 5894 5893 5892 5891 5890 5890 5890 5890 5890 5889 5888 5886 5885 5883 5880 5877 5874 5871 5869 5865 5862 5859 5855
5903 5903 5904 5903 5903 5902 5901 5900 5899 5898 5897 5896 5895 5895 5894 5894 5895 5896 5896 5895 5895 5894 5893 5893 5893 5893 5893 5893 5893 5892 5891 5889 5886 5884 5883 5881 5878 5875 5872 5868 5864 5860 5855 5851 5848
5905 5905 5905 5905 5904 5903 5902 5900 5899 5898 5897 5896 5895 5894 5894 5895 5896 5896 5896 5896 5896 5895 5894 5894 5894 5894 5895 5894 5893 5890 5888 5886 5885 5882 5880 5877 5875 5872 5868 5865 5860 5857 5852 5847 5842
5906 5907 5907 5907 5906 5904 5902 5901 5899 5897 5896 5895 5895 5896 5896 5897 5899 5898 5898 5897 5896 5895 5895 5895 5895 5895 5895 5893 5891 5889 5887 5884 5883 5880 5877 5873 5870 5867 5863 5859 5853 5849 5845 5839 5834
5908 5909 5909 5908 5907 5905 5903 5901 5899 5898 5897 5897 5897 5898 5899 5899 5899 5899 5897 5897 5896 5895 5895 5895 5895 5894 5893 5891 5889 5885 5884 5882 5879 5877 5876 5871 5867 5863 5859 5852 5847 5841 5835 5829 5821
5909 5910 5910 5909 5908 5906 5903 5901 5900 5900 5899 5898 5899 5899 5900 5900 5899 5898 5897 5896 5896 5896 5896 5896 5895 5892 5891 5889 5887 5886 5883 5880 5878 5874 5871 5867 5862 5857 5851 5846 5840 5833 5825 5817 5810
5910 5911 5912 5911 5909 5907 5904 5902 5901 5901 5900 5900 5900 5900 5900 5901 5899 5898 5897 5897 5896 5896 5895 5894 5894 5892 5891 5889 5887 5885 5882 5879 5876 5872 5867 5863 5857 5851 5845 5837 5829 5821 5812 5804 5795
5911 5913 5913 5912 5911 5909 5906 5904 5903 5902 5901 5901 5900 5900 5900 5899 5898 5898 5898 5898 5897 5897 5895 5895 5893 5892 5890 5888 5886 5884 5882 5877 5873 5868 5862 5857 5851 5843 5836 5829 5820 5811 5801 5791 5779
5912 5913 5914 5914 5913 5911 5908 5906 5904 5903 5902 5902 5901 5900 5900 5900 5899 5899 5898 5898 5898 5896 5894 5894 5893 5891 5888 5886 5884 5881 5877 5873 5869 5866 5861 5853 5844 5837 5829 5819 5809 5797 5785 5775 5764
5913 5914 5915 5915 5914 5913 5910 5908 5906 5905 5904 5903 5903 5903 5901 5900 5899 5898 5897 5896 5895 5894 5894 5893 5891 5889 5887 5885 5881 5877 5874 5870 5865 5861 5853 5847 5838 5830 5821 5810 5798 5785 5772 5758 5744
5913 5915 5916 5916 5915 5914 5912 5910 5909 5908 5905 5904 5904 5903 5901 5901 5900 5898 5896 5895 5894 5892 5892 5891 5890 5887 5885 5881 5878 5875 5870 5865 5858 5850 5844 5837 5829 5821 5809 5797 5783 5769 5756 5740 5724
5913 5915 5916 5916 5916 5915 5914 5912 5910 5910 5907 5905 5904 5903 5902 5901 5901 5898 5896 5895 5893 5891 5891 5890 5887 5885 5881 5878 5875 5870 5863 5857 5850 5842 5835 5826 5815 5805 5794 5781 5766 5750 5733 5717 5705
5913 5915 5916 5916 5916 5916 5915 5914 5912 5911 5909 5908 5905 5903 5903 5902 5899 5897 5896 5894 5893 5892 5890 5888 5885 5882 5878 5874 5870 5862 5857 5850 5843 5835 5826 5815 5804 5794 5779 5763 5747 5732 5714 5697 5679
5912 5914 5916 5917 5918 5916 5916 5914 5913 5911 5910 5909 5907 5905 5903 5900 5899 5897 5895 5895 5893 5891 5888 5886 5881 5878 5874 5869 5864 5858 5852 5844 5835 5824 5814 5802 5788 5777 5762 5748 5729 5712 5697 5677 5658
5911 5913 5915 5916 5917 5917 5917 5915 5913 5912 5910 5910 5906 5903 5901 5900 5898 5896 5894 5893 5891 5889 5887 5882 5878 5873 5869 5865 5860 5854 5845 5836 5825 5814 5801 5788 5774 5763 5748 5731 5713 5696 5680 5657 5641
5909 5910 5913 5915 5916 5916 5916 5915 5914 5914 5910 5909 5906 5902 5900 5898 5897 5895 5893 5891 5889 5887 5882 5878 5874 5870 5865 5860 5853 5846 5837 5826 5815 5803 5793 5777 5763 5751 5732 5715 5699 5680 5659 5640 5629
5907 5909 5911 5913 5915 5915 5915 5915 5915 5912 5912 5909 5906 5902 5899 5897 5895 5893 5891 5889 5886 5883 5879 5875 5871 5866 5861 5855 5848 5838 5828 5817 5807 5795 5783 5767 5753 5736 5718 5699 5678 5654 5639 5631 5621
5905 5907 5908 5911 5913 5914 5914 5915 5914 5912 5910 5908 5905 5902 5899 5896 5894 5892 5890 5887 5883 5879 5876 5873 5869 5861 5855 5849 5839 5829 5819 5806 5792 5785 5774 5758 5745 5729 5708 5688 5668 5654 5638 5629 5618
5903 5905 5907 5909 5910 5912 5913 5913 5912 5911 5910 5907 5904 5901 5898 5895 5893 5890 5887 5884 5881 5876 5872 5866 5863 5856 5849 5841 5832 5822 5811 5801 5790 5778 5762 5747 5735 5719 5699 5680 5663 5649 5638 5626 5613
5900 5903 5904 5906 5907 5909 5911 5911 5910 5909 5908 5906 5904 5901 5897 5894 5891 5887 5885 5882 5878 5873 5868 5863 5857 5850 5842 5834 5826 5815 5804 5792 5779 5765 5753 5734 5720 5703 5683 5662 5651 5640 5629 5617 5606
5898 5900 5902 5903 5905 5906 5907 5908 5908 5907 5906 5905 5902 5900 5897 5893 5890 5885 5882 5878 5873 5868 5862 5856 5851 5845 5837 5829 5820 5810 5799 5785 5773 5760 5742 5722 5712 5689 5667 5648 5640 5631 5623 5611 5598
5894 5897 5899 5900 5902 5903 5904 5905 5906 5904 5903 5903 5901 5899 5896 5892 5888 5883 5879 5874 5868 5862 5857 5851 5845 5839 5832 5823 5814 5803 5792 5781 5768 5755 5739 5719 5704 5683 5661 5648 5638 5630 5621 5610 5598
5891 5893 5895 5897 5899 5900 5901 5903 5903 5902 5901 5900 5899 5897 5894 5890 5887 5882 5876 5870 5864 5858 5851 5845 5838 5832 5825 5819 5808 5798 5788 5776 5764 5750 5735 5716 5704 5685 5663 5650 5643 5630 5619 5607 5594
5887 5890 5892 5894 5895 5896 5898 5900 5900 5900 5899 5897 5896 5895 5892 5888 5884 5879 5873 5867 5861 5853 5846 5840 5834 5828 5821 5813 5803 5793 5782 5770 5756 5744 5728 5709 5694 5679 5660 5650 5642 5628 5617 5604 5594
5882 5885 5887 5889 5891 5892 5894 5896 5896 5897 5896 5895 5893 5892 5889 5885 5882 5877 5871 5863 5856 5848 5841 5835 5829 5824 5816 5808 5799 5788 5777 5764 5750 5736 5722 5706 5687 5668 5652 5644 5635 5625 5617 5607 5598
5877 5881 5882 5884 5886 5888 5890 5892 5893 5893 5893 5892 5891 5888 5885 5883 5879 5873 5868 5860 5853 5845 5837 5830 5825 5819 5812 5804 5794 5783 5771 5759 5744 5733 5720 5701 5688 5668 5656 5646 5637 5630 5621 5609 5598
5871 5874 5878 5880 5882 5884 5887 5887 5888 5889 5889 5888 5887 5885 5882 5880 5875 5870 5865 5857 5849 5841 5833 5827 5821 5814 5807 5798 5789 5781 5767 5756 5741 5727 5714 5699 5682 5668 5662 5648 5635 5628 5622 5612 5605